Time,TemperatureF,DewpointF,PressureIn,WindDirection,WindDirectionDegrees,WindSpeedMPH,WindSpeedGustMPH,Humidity,HourlyPrecipIn,Conditions,Clouds,dailyrainin,SoftwareType,DateUTC
2013-05-18 01:20:00,46.0,45.0,30.19,SE,135,0.0,4.0,97,0.00,,,0.00,Rainwise IP-100,2013-05-18 05:20:00,
2013-05-18 01:25:00,46.0,45.0,30.19,SE,135,0.0,4.0,97,0.00,,,0.00,Rainwise IP-100,2013-05-18 05:25:00,
2013-05-18 01:30:00,46.0,45.0,30.19,SE,135,0.0,0.0,97,0.00,,,0.00,Rainwise IP-100,2013-05-18 05:30:00,
2013-05-18 01:35:00,46.0,45.0,30.19,SE,135,0.0,0.0,97,0.00,,,0.00,Rainwise IP-100,2013-05-18 05:35:00,
2013-05-18 01:41:00,46.0,45.0,30.19,SE,135,0.0,0.0,97,0.00,,,0.00,Rainwise IP-100,2013-05-18 05:41:00,
2013-05-18 01:46:00,46.0,45.0,30.19,SE,135,0.0,0.0,97,0.00,,,0.00,Rainwise IP-100,2013-05-18 05:46:00,
2013-05-18 01:51:00,46.0,45.0,30.19,SE,135,0.0,0.0,97,0.00,,,0.00,Rainwise IP-100,2013-05-18 05:51:00,
2013-05-18 01:56:00,46.0,45.0,30.19,SE,135,0.0,0.0,97,0.00,,,0.00,Rainwise IP-100,2013-05-18 05:56:00,
2013-05-18 02:01:00,46.0,45.0,30.19,SE,135,0.0,0.0,97,0.00,,,0.00,Rainwise IP-100,2013-05-18 06:01:00,
2013-05-18 02:06:00,46.0,45.0,30.19,SE,135,0.0,0.0,97,0.00,,,0.00,Rainwise IP-100,2013-05-18 06:06:00,
2013-05-18 02:11:00,46.0,45.0,30.19,SE,135,0.0,0.0,97,0.00,,,0.00,Rainwise IP-100,2013-05-18 06:11:00,
2013-05-18 02:16:00,45.0,44.0,30.19,SE,135,0.0,0.0,97,0.00,,,0.00,Rainwise IP-100,2013-05-18 06:16:00,
2013-05-18 02:22:00,45.0,44.0,30.18,SE,135,0.0,0.0,97,0.00,,,0.00,Rainwise IP-100,2013-05-18 06:22:00,
2013-05-18 02:27:00,44.0,43.0,30.18,SE,135,0.0,0.0,97,0.00,,,0.00,Rainwise IP-100,2013-05-18 06:27:00,
2013-05-18 02:32:00,44.0,43.0,30.18,SE,135,0.0,0.0,97,0.00,,,0.00,Rainwise IP-100,2013-05-18 06:32:00,
2013-05-18 02:37:00,44.0,43.0,30.18,SE,135,0.0,0.0,97,0.00,,,0.00,Rainwise IP-100,2013-05-18 06:37:00,
2013-05-18 02:42:00,44.0,43.0,30.18,SE,135,0.0,0.0,97,0.00,,,0.00,Rainwise IP-100,2013-05-18 06:42:00,
2013-05-18 02:47:00,44.0,43.0,30.18,SE,135,0.0,0.0,97,0.00,,,0.00,Rainwise IP-100,2013-05-18 06:47:00,
2013-05-18 02:52:00,44.0,43.0,30.18,SE,135,0.0,0.0,97,0.00,,,0.00,Rainwise IP-100,2013-05-18 06:52:00,
2013-05-18 02:58:00,44.0,43.0,30.18,SE,135,0.0,0.0,97,0.00,,,0.00,Rainwise IP-100,2013-05-18 06:58:00,
2013-05-18 03:03:00,44.0,43.0,30.19,SE,135,0.0,0.0,97,0.00,,,0.00,Rainwise IP-100,2013-05-18 07:03:00,
2013-05-18 03:08:00,44.0,43.0,30.19,SE,135,0.0,2.0,97,0.00,,,0.00,Rainwise IP-100,2013-05-18 07:08:00,
2013-05-18 03:13:00,44.0,43.0,30.19,SE,135,0.0,0.0,97,0.00,,,0.00,Rainwise IP-100,2013-05-18 07:13:00,
2013-05-18 03:18:00,43.0,42.0,30.19,SE,135,0.0,0.0,96,0.00,,,0.00,Rainwise IP-100,2013-05-18 07:18:00,
2013-05-18 03:23:00,44.0,43.0,30.19,SE,135,0.0,0.0,97,0.00,,,0.00,Rainwise IP-100,2013-05-18 07:23:00,
2013-05-18 03:28:00,44.0,43.0,30.19,SE,135,0.0,0.0,97,0.00,,,0.00,Rainwise IP-100,2013-05-18 07:28:00,
2013-05-18 03:33:00,43.0,42.0,30.19,SE,135,0.0,0.0,96,0.00,,,0.00,Rainwise IP-100,2013-05-18 07:33:00,
2013-05-18 03:38:00,43.0,42.0,30.19,SE,135,0.0,0.0,96,0.00,,,0.00,Rainwise IP-100,2013-05-18 07:38:00,
2013-05-18 03:44:00,43.0,42.0,30.20,SE,135,0.0,0.0,96,0.00,,,0.00,Rainwise IP-100,2013-05-18 07:44:00,
2013-05-18 03:49:00,42.0,41.0,30.20,SE,135,0.0,0.0,96,0.00,,,0.00,Rainwise IP-100,2013-05-18 07:49:00,
2013-05-18 03:54:00,43.0,42.0,30.20,SE,135,0.0,0.0,96,0.00,,,0.00,Rainwise IP-100,2013-05-18 07:54:00,
2013-05-18 03:59:00,43.0,42.0,30.20,SE,135,0.0,0.0,96,0.00,,,0.00,Rainwise IP-100,2013-05-18 07:59:00,
2013-05-18 04:04:00,42.0,41.0,30.20,SE,135,0.0,0.0,96,0.00,,,0.00,Rainwise IP-100,2013-05-18 08:04:00,
2013-05-18 04:09:00,43.0,42.0,30.20,SE,135,0.0,0.0,96,0.00,,,0.00,Rainwise IP-100,2013-05-18 08:09:00,
2013-05-18 04:14:00,42.0,41.0,30.20,SE,135,0.0,0.0,96,0.00,,,0.00,Rainwise IP-100,2013-05-18 08:14:00,
2013-05-18 04:20:00,42.0,41.0,30.20,SE,135,0.0,0.0,96,0.00,,,0.00,Rainwise IP-100,2013-05-18 08:20:00,
2013-05-18 04:25:00,42.0,41.0,30.21,SE,135,0.0,0.0,96,0.00,,,0.00,Rainwise IP-100,2013-05-18 08:25:00,
2013-05-18 04:30:00,42.0,41.0,30.21,SE,135,0.0,0.0,96,0.00,,,0.00,Rainwise IP-100,2013-05-18 08:30:00,
2013-05-18 04:35:00,42.0,41.0,30.21,SE,135,0.0,0.0,96,0.00,,,0.00,Rainwise IP-100,2013-05-18 08:35:00,
2013-05-18 04:40:00,42.0,41.0,30.21,SE,135,0.0,0.0,96,0.00,,,0.00,Rainwise IP-100,2013-05-18 08:40:00,
2013-05-18 04:45:00,42.0,41.0,30.21,SE,135,0.0,0.0,96,0.00,,,0.00,Rainwise IP-100,2013-05-18 08:45:00,
2013-05-18 04:50:00,42.0,41.0,30.22,SE,135,0.0,0.0,96,0.00,,,0.00,Rainwise IP-100,2013-05-18 08:50:00,
2013-05-18 04:55:00,42.0,41.0,30.22,SE,135,0.0,0.0,96,0.00,,,0.00,Rainwise IP-100,2013-05-18 08:55:00,
2013-05-18 05:01:00,42.0,41.0,30.22,SE,135,0.0,0.0,96,0.00,,,0.00,Rainwise IP-100,2013-05-18 09:01:00,
2013-05-18 05:06:00,42.0,41.0,30.22,SE,135,0.0,0.0,96,0.00,,,0.00,Rainwise IP-100,2013-05-18 09:06:00,
2013-05-18 05:11:00,42.0,41.0,30.22,SE,135,0.0,0.0,96,0.00,,,0.00,Rainwise IP-100,2013-05-18 09:11:00,
2013-05-18 05:16:00,42.0,41.0,30.22,SE,135,0.0,0.0,96,0.00,,,0.00,Rainwise IP-100,2013-05-18 09:16:00,
2013-05-18 05:21:00,42.0,41.0,30.23,SE,135,0.0,0.0,96,0.00,,,0.00,Rainwise IP-100,2013-05-18 09:21:00,
2013-05-18 05:26:00,42.0,41.0,30.23,SE,135,0.0,0.0,96,0.00,,,0.00,Rainwise IP-100,2013-05-18 09:26:00,
2013-05-18 05:31:00,42.0,41.0,30.23,SE,135,0.0,0.0,96,0.00,,,0.00,Rainwise IP-100,2013-05-18 09:31:00,
2013-05-18 05:37:00,42.0,41.0,30.23,SE,135,0.0,0.0,96,0.00,,,0.00,Rainwise IP-100,2013-05-18 09:37:00,
2013-05-18 05:42:00,42.0,41.0,30.23,SE,135,0.0,0.0,96,0.00,,,0.00,Rainwise IP-100,2013-05-18 09:42:00,
2013-05-18 05:47:00,41.0,40.0,30.23,SE,135,0.0,0.0,96,0.00,,,0.00,Rainwise IP-100,2013-05-18 09:47:00,
2013-05-18 05:52:00,41.0,40.0,30.24,SE,135,0.0,0.0,96,0.00,,,0.00,Rainwise IP-100,2013-05-18 09:52:00,
2013-05-18 05:57:00,42.0,41.0,30.24,SE,135,0.0,0.0,96,0.00,,,0.00,Rainwise IP-100,2013-05-18 09:57:00,
2013-05-18 06:02:00,42.0,41.0,30.24,SE,135,0.0,0.0,96,0.00,,,0.00,Rainwise IP-100,2013-05-18 10:02:00,
2013-05-18 06:07:00,41.0,40.0,30.24,SE,135,0.0,0.0,96,0.00,,,0.00,Rainwise IP-100,2013-05-18 10:07:00,
2013-05-18 06:12:00,41.0,40.0,30.25,SE,135,0.0,0.0,96,0.00,,,0.00,Rainwise IP-100,2013-05-18 10:12:00,
2013-05-18 06:18:00,41.0,40.0,30.25,SE,135,0.0,0.0,96,0.00,,,0.00,Rainwise IP-100,2013-05-18 10:18:00,
2013-05-18 06:23:00,41.0,40.0,30.25,SE,135,0.0,0.0,96,0.00,,,0.00,Rainwise IP-100,2013-05-18 10:23:00,
2013-05-18 06:28:00,42.0,41.0,30.25,SE,135,0.0,0.0,96,0.00,,,0.00,Rainwise IP-100,2013-05-18 10:28:00,
2013-05-18 06:33:00,42.0,41.0,30.25,SE,135,0.0,0.0,96,0.00,,,0.00,Rainwise IP-100,2013-05-18 10:33:00,
2013-05-18 06:38:00,42.0,41.0,30.25,SE,135,0.0,0.0,96,0.00,,,0.00,Rainwise IP-100,2013-05-18 10:38:00,
2013-05-18 06:43:00,42.0,41.0,30.25,SE,135,0.0,0.0,96,0.00,,,0.00,Rainwise IP-100,2013-05-18 10:43:00,
2013-05-18 06:48:00,42.0,41.0,30.25,SE,135,0.0,0.0,96,0.00,,,0.00,Rainwise IP-100,2013-05-18 10:48:00,
2013-05-18 06:54:00,42.0,41.0,30.25,SE,135,0.0,0.0,96,0.00,,,0.00,Rainwise IP-100,2013-05-18 10:54:00,
2013-05-18 06:59:00,43.0,42.0,30.25,SE,135,0.0,0.0,96,0.00,,,0.00,Rainwise IP-100,2013-05-18 10:59:00,
2013-05-18 07:04:00,45.0,44.0,30.25,SE,135,0.0,1.0,97,0.00,,,0.00,Rainwise IP-100,2013-05-18 11:04:00,
2013-05-18 07:09:00,45.0,44.0,30.25,SE,135,0.0,0.0,97,0.00,,,0.00,Rainwise IP-100,2013-05-18 11:09:00,
2013-05-18 07:14:00,46.0,45.0,30.24,SE,135,0.0,0.0,97,0.00,,,0.00,Rainwise IP-100,2013-05-18 11:14:00,
2013-05-18 07:19:00,46.0,45.0,30.24,SE,135,0.0,0.0,97,0.00,,,0.00,Rainwise IP-100,2013-05-18 11:19:00,
2013-05-18 07:24:00,47.0,46.0,30.24,SE,135,0.0,0.0,97,0.00,,,0.00,Rainwise IP-100,2013-05-18 11:24:00,
2013-05-18 07:29:00,48.0,47.5,30.24,SE,135,0.0,1.0,97,0.00,,,0.00,Rainwise IP-100,2013-05-18 11:29:00,
2013-05-18 07:30:00,48.0,47.5,30.24,SE,135,0.0,1.0,97,0.00,,,0.00,Rainwise IP-100,2013-05-18 11:30:00,
2013-05-18 07:35:00,49.0,48.0,30.24,SE,135,0.0,0.0,97,0.00,,,0.00,Rainwise IP-100,2013-05-18 11:35:00,
2013-05-18 07:40:00,51.0,50.5,30.23,SE,135,0.0,0.0,97,0.00,,,0.00,Rainwise IP-100,2013-05-18 11:40:00,
2013-05-18 07:45:00,52.0,51.0,30.23,West,270,0.0,3.0,97,0.00,,,0.00,Rainwise IP-100,2013-05-18 11:45:00,
2013-05-18 07:50:00,52.0,51.0,30.23,West,270,1.0,1.0,97,0.00,,,0.00,Rainwise IP-100,2013-05-18 11:50:00,
2013-05-18 07:55:00,53.0,52.0,30.23,WNW,292,0.0,2.0,97,0.00,,,0.00,Rainwise IP-100,2013-05-18 11:55:00,
2013-05-18 08:01:00,54.0,53.5,30.22,WNW,292,0.0,0.0,97,0.00,,,0.00,Rainwise IP-100,2013-05-18 12:01:00,
2013-05-18 08:06:00,54.0,53.5,30.22,WNW,292,0.0,0.0,97,0.00,,,0.00,Rainwise IP-100,2013-05-18 12:06:00,
2013-05-18 08:11:00,54.0,53.5,30.22,WNW,292,1.0,2.0,97,0.00,,,0.00,Rainwise IP-100,2013-05-18 12:11:00,
2013-05-18 08:16:00,54.0,48.0,30.22,WNW,292,1.0,4.0,82,0.00,,,0.00,Rainwise IP-100,2013-05-18 12:16:00,
2013-05-18 08:21:00,54.0,48.0,30.22,WNW,292,1.0,4.0,82,0.00,,,0.00,Rainwise IP-100,2013-05-18 12:21:00,
2013-05-18 08:26:00,56.0,50.5,30.22,WNW,292,0.0,5.0,83,0.00,,,0.00,Rainwise IP-100,2013-05-18 12:26:00,
2013-05-18 08:31:00,57.0,49.0,30.22,West,270,1.0,2.0,75,0.00,,,0.00,Rainwise IP-100,2013-05-18 12:31:00,
2013-05-18 08:36:00,57.0,49.0,30.22,West,270,0.0,1.0,75,0.00,,,0.00,Rainwise IP-100,2013-05-18 12:36:00,
2013-05-18 08:42:00,59.0,47.5,30.22,WNW,292,2.0,5.0,66,0.00,,,0.00,Rainwise IP-100,2013-05-18 12:42:00,
2013-05-18 08:47:00,59.0,47.5,30.22,WNW,292,1.0,2.0,66,0.00,,,0.00,Rainwise IP-100,2013-05-18 12:47:00,
2013-05-18 08:52:00,61.0,47.5,30.21,WNW,292,2.0,2.0,61,0.00,,,0.00,Rainwise IP-100,2013-05-18 12:52:00,
2013-05-18 08:57:00,60.0,47.0,30.21,West,270,0.0,5.0,61,0.00,,,0.00,Rainwise IP-100,2013-05-18 12:57:00,
2013-05-18 09:02:00,61.0,47.5,30.21,NNW,337,4.0,5.0,61,0.00,,,0.00,Rainwise IP-100,2013-05-18 13:02:00,
2013-05-18 09:07:00,62.0,47.5,30.21,NW,315,2.0,5.0,59,0.00,,,0.00,Rainwise IP-100,2013-05-18 13:07:00,
2013-05-18 09:12:00,63.0,47.5,30.20,NW,315,1.0,4.0,57,0.00,,,0.00,Rainwise IP-100,2013-05-18 13:12:00,
2013-05-18 09:18:00,63.0,48.0,30.20,NNW,337,3.0,6.0,58,0.00,,,0.00,Rainwise IP-100,2013-05-18 13:18:00,
2013-05-18 09:23:00,64.0,47.0,30.20,North,360,2.0,6.0,54,0.00,,,0.00,Rainwise IP-100,2013-05-18 13:23:00,
2013-05-18 09:28:00,65.0,47.5,30.20,West,270,1.0,4.0,54,0.00,,,0.00,Rainwise IP-100,2013-05-18 13:28:00,
2013-05-18 09:33:00,65.0,47.0,30.19,NW,315,7.0,7.0,52,0.00,,,0.00,Rainwise IP-100,2013-05-18 13:33:00,
2013-05-18 09:38:00,65.0,47.5,30.19,SE,135,0.0,8.0,54,0.00,,,0.00,Rainwise IP-100,2013-05-18 13:38:00,
2013-05-18 09:43:00,66.0,48.0,30.19,SW,225,2.0,5.0,53,0.00,,,0.00,Rainwise IP-100,2013-05-18 13:43:00,
2013-05-18 09:48:00,66.0,47.5,30.19,South,180,1.0,7.0,52,0.00,,,0.00,Rainwise IP-100,2013-05-18 13:48:00,
2013-05-18 09:53:00,67.0,47.5,30.18,WNW,292,1.0,2.0,49,0.00,,,0.00,Rainwise IP-100,2013-05-18 13:53:00,
2013-05-18 09:59:00,67.0,46.0,30.18,ESE,112,3.0,3.0,47,0.00,,,0.00,Rainwise IP-100,2013-05-18 13:59:00,
2013-05-18 10:04:00,68.0,45.0,30.18,SSE,157,1.0,6.0,44,0.00,,,0.00,Rainwise IP-100,2013-05-18 14:04:00,
2013-05-18 10:09:00,68.0,47.5,30.18,West,270,2.0,5.0,48,0.00,,,0.00,Rainwise IP-100,2013-05-18 14:09:00,
2013-05-18 10:14:00,68.0,45.0,30.18,West,270,2.0,3.0,43,0.00,,,0.00,Rainwise IP-100,2013-05-18 14:14:00,
2013-05-18 10:19:00,68.0,43.0,30.18,SW,225,2.0,3.0,41,0.00,,,0.00,Rainwise IP-100,2013-05-18 14:19:00,
2013-05-18 10:24:00,68.0,43.0,30.18,SSW,202,0.0,3.0,41,0.00,,,0.00,Rainwise IP-100,2013-05-18 14:24:00,
2013-05-18 10:30:00,68.0,43.0,30.18,SSW,202,0.0,0.0,41,0.00,,,0.00,Rainwise IP-100,2013-05-18 14:30:00,
2013-05-18 10:37:00,68.0,40.0,30.18,NNW,337,0.0,0.0,36,0.00,,,0.00,Rainwise IP-100,2013-05-18 14:37:00,
2013-05-18 10:43:00,69.0,39.0,30.16,SSE,157,1.0,3.0,34,0.00,,,0.00,Rainwise IP-100,2013-05-18 14:43:00,
2013-05-18 10:48:00,69.0,40.0,30.16,SW,225,4.0,5.0,35,0.00,,,0.00,Rainwise IP-100,2013-05-18 14:48:00,
2013-05-18 10:53:00,69.0,38.0,30.17,West,270,3.0,5.0,32,0.00,,,0.00,Rainwise IP-100,2013-05-18 14:53:00,
2013-05-18 10:58:00,68.0,36.0,30.17,NE,45,3.0,6.0,31,0.00,,,0.00,Rainwise IP-100,2013-05-18 14:58:00,
2013-05-18 11:03:00,68.0,38.0,30.17,NW,315,1.0,4.0,33,0.00,,,0.00,Rainwise IP-100,2013-05-18 15:03:00,
2013-05-18 11:08:00,68.0,39.0,30.17,WSW,247,0.0,2.0,35,0.00,,,0.00,Rainwise IP-100,2013-05-18 15:08:00,
2013-05-18 11:13:00,69.0,38.0,30.17,West,270,1.0,3.0,32,0.00,,,0.00,Rainwise IP-100,2013-05-18 15:13:00,
2013-05-18 11:18:00,70.0,38.0,30.17,East,90,1.0,4.0,31,0.00,,,0.00,Rainwise IP-100,2013-05-18 15:18:00,
2013-05-18 11:24:00,69.0,38.0,30.16,North,360,0.0,6.0,33,0.00,,,0.00,Rainwise IP-100,2013-05-18 15:24:00,
2013-05-18 11:29:00,70.0,38.0,30.16,SW,225,4.0,5.0,31,0.00,,,0.00,Rainwise IP-100,2013-05-18 15:29:00,
2013-05-18 11:34:00,70.0,37.0,30.16,NNE,22,1.0,7.0,30,0.00,,,0.00,Rainwise IP-100,2013-05-18 15:34:00,
2013-05-18 11:39:00,70.0,41.0,30.16,SW,225,1.0,5.0,35,0.00,,,0.00,Rainwise IP-100,2013-05-18 15:39:00,
2013-05-18 11:44:00,70.0,38.0,30.16,WSW,247,1.0,5.0,31,0.00,,,0.00,Rainwise IP-100,2013-05-18 15:44:00,
2013-05-18 11:49:00,69.0,36.0,30.16,West,270,2.0,6.0,30,0.00,,,0.00,Rainwise IP-100,2013-05-18 15:49:00,
2013-05-18 11:54:00,69.0,41.0,30.16,NNW,337,1.0,3.0,36,0.00,,,0.00,Rainwise IP-100,2013-05-18 15:54:00,
2013-05-18 12:00:00,69.0,41.0,30.16,ESE,112,3.0,4.0,36,0.00,,,0.00,Rainwise IP-100,2013-05-18 16:00:00,
2013-05-18 12:05:00,71.0,41.0,30.15,South,180,3.0,5.0,34,0.00,,,0.00,Rainwise IP-100,2013-05-18 16:05:00,
2013-05-18 12:10:00,71.0,42.0,30.14,East,90,0.0,7.0,35,0.00,,,0.00,Rainwise IP-100,2013-05-18 16:10:00,
2013-05-18 12:15:00,70.0,39.0,30.14,South,180,1.0,5.0,32,0.00,,,0.00,Rainwise IP-100,2013-05-18 16:15:00,
2013-05-18 12:20:00,70.0,39.0,30.14,NW,315,0.0,7.0,32,0.00,,,0.00,Rainwise IP-100,2013-05-18 16:20:00,
2013-05-18 12:25:00,70.0,40.0,30.14,SE,135,0.0,7.0,34,0.00,,,0.00,Rainwise IP-100,2013-05-18 16:25:00,
2013-05-18 12:30:00,70.0,40.0,30.14,South,180,0.0,4.0,34,0.00,,,0.00,Rainwise IP-100,2013-05-18 16:30:00,
2013-05-18 12:35:00,70.0,38.0,30.14,WSW,247,3.0,6.0,31,0.00,,,0.00,Rainwise IP-100,2013-05-18 16:35:00,
2013-05-18 12:40:00,70.0,36.0,30.14,West,270,5.0,8.0,29,0.00,,,0.00,Rainwise IP-100,2013-05-18 16:40:00,
2013-05-18 12:46:00,70.0,36.0,30.14,NE,45,1.0,5.0,29,0.00,,,0.00,Rainwise IP-100,2013-05-18 16:46:00,
2013-05-18 12:51:00,70.0,37.0,30.14,NE,45,0.0,3.0,30,0.00,,,0.00,Rainwise IP-100,2013-05-18 16:51:00,
2013-05-18 12:56:00,70.0,37.0,30.14,WSW,247,4.0,5.0,30,0.00,,,0.00,Rainwise IP-100,2013-05-18 16:56:00,
2013-05-18 13:01:00,70.0,37.0,30.14,NW,315,3.0,5.0,30,0.00,,,0.00,Rainwise IP-100,2013-05-18 17:01:00,
2013-05-18 13:06:00,70.0,37.0,30.14,NW,315,3.0,5.0,30,0.00,,,0.00,Rainwise IP-100,2013-05-18 17:06:00,
2013-05-18 13:11:00,70.0,39.0,30.13,WNW,292,0.0,5.0,32,0.00,,,0.00,Rainwise IP-100,2013-05-18 17:11:00,
2013-05-18 13:16:00,71.0,37.0,30.13,North,360,6.0,10.0,29,0.00,,,0.00,Rainwise IP-100,2013-05-18 17:16:00,
2013-05-18 16:07:00,70.0,42.0,30.10,West,270,1.0,10.0,36,0.00,,,0.00,Rainwise IP-100,2013-05-18 20:07:00,
2013-05-18 16:12:00,70.0,40.0,30.10,SE,135,2.0,6.0,34,0.00,,,0.00,Rainwise IP-100,2013-05-18 20:12:00,
2013-05-18 16:17:00,70.0,41.0,30.10,SW,225,0.0,5.0,35,0.00,,,0.00,Rainwise IP-100,2013-05-18 20:17:00,
2013-05-18 16:22:00,70.0,41.0,30.11,SE,135,3.0,6.0,35,0.00,,,0.00,Rainwise IP-100,2013-05-18 20:22:00,
2013-05-18 16:27:00,70.0,42.0,30.11,West,270,2.0,6.0,37,0.00,,,0.00,Rainwise IP-100,2013-05-18 20:27:00,
2013-05-18 16:32:00,70.0,43.0,30.11,WSW,247,0.0,4.0,38,0.00,,,0.00,Rainwise IP-100,2013-05-18 20:32:00,
2013-05-18 16:38:00,70.0,43.0,30.11,SW,225,3.0,6.0,38,0.00,,,0.00,Rainwise IP-100,2013-05-18 20:38:00,
2013-05-18 16:43:00,69.0,43.0,30.11,SSE,157,6.0,9.0,39,0.00,,,0.00,Rainwise IP-100,2013-05-18 20:43:00,
2013-05-18 16:48:00,68.0,41.0,30.11,SSW,202,0.0,10.0,38,0.00,,,0.00,Rainwise IP-100,2013-05-18 20:48:00,
2013-05-18 16:53:00,68.0,42.0,30.12,South,180,3.0,7.0,39,0.00,,,0.00,Rainwise IP-100,2013-05-18 20:53:00,
2013-05-18 16:58:00,67.0,42.0,30.12,South,180,1.0,6.0,41,0.00,,,0.00,Rainwise IP-100,2013-05-18 20:58:00,
2013-05-18 17:03:00,67.0,42.0,30.12,SSW,202,4.0,6.0,40,0.00,,,0.00,Rainwise IP-100,2013-05-18 21:03:00,
2013-05-18 17:08:00,67.0,41.0,30.12,SW,225,6.0,7.0,39,0.00,,,0.00,Rainwise IP-100,2013-05-18 21:08:00,
2013-05-18 17:13:00,67.0,42.0,30.12,SSW,202,1.0,6.0,40,0.00,,,0.00,Rainwise IP-100,2013-05-18 21:13:00,
2013-05-18 17:19:00,67.0,42.0,30.12,SW,225,4.0,6.0,40,0.00,,,0.00,Rainwise IP-100,2013-05-18 21:19:00,
2013-05-18 17:24:00,67.0,42.0,30.12,SW,225,3.0,7.0,41,0.00,,,0.00,Rainwise IP-100,2013-05-18 21:24:00,
2013-05-18 17:29:00,67.0,43.0,30.12,South,180,4.0,7.0,42,0.00,,,0.00,Rainwise IP-100,2013-05-18 21:29:00,
2013-05-18 17:34:00,68.0,46.0,30.12,SSE,157,1.0,7.0,45,0.00,,,0.00,Rainwise IP-100,2013-05-18 21:34:00,
2013-05-18 17:39:00,68.0,47.0,30.12,SW,225,3.0,4.0,46,0.00,,,0.00,Rainwise IP-100,2013-05-18 21:39:00,
2013-05-18 17:44:00,67.0,46.0,30.12,ESE,112,5.0,5.0,46,0.00,,,0.00,Rainwise IP-100,2013-05-18 21:44:00,
2013-05-18 17:49:00,67.0,47.0,30.12,SSW,202,1.0,7.0,48,0.00,,,0.00,Rainwise IP-100,2013-05-18 21:49:00,
2013-05-18 17:55:00,67.0,47.0,30.12,SSW,202,2.0,8.0,48,0.00,,,0.00,Rainwise IP-100,2013-05-18 21:55:00,
2013-05-18 18:00:00,67.0,47.0,30.12,SSW,202,5.0,9.0,48,0.00,,,0.00,Rainwise IP-100,2013-05-18 22:00:00,
2013-05-18 18:05:00,67.0,47.5,30.12,SW,225,3.0,6.0,49,0.00,,,0.00,Rainwise IP-100,2013-05-18 22:05:00,
2013-05-18 18:10:00,67.0,47.5,30.12,SSE,157,3.0,6.0,49,0.00,,,0.00,Rainwise IP-100,2013-05-18 22:10:00,
2013-05-18 18:15:00,67.0,47.5,30.12,South,180,0.0,6.0,49,0.00,,,0.00,Rainwise IP-100,2013-05-18 22:15:00,
2013-05-18 18:20:00,67.0,47.5,30.13,South,180,0.0,3.0,49,0.00,,,0.00,Rainwise IP-100,2013-05-18 22:20:00,
2013-05-18 18:25:00,67.0,47.0,30.13,South,180,3.0,7.0,48,0.00,,,0.00,Rainwise IP-100,2013-05-18 22:25:00,
2013-05-18 18:30:00,66.0,47.0,30.13,WSW,247,5.0,6.0,50,0.00,,,0.00,Rainwise IP-100,2013-05-18 22:30:00,
2013-05-18 18:36:00,65.0,47.0,30.13,South,180,3.0,7.0,52,0.00,,,0.00,Rainwise IP-100,2013-05-18 22:36:00,
2013-05-18 18:41:00,65.0,47.0,30.14,SSW,202,1.0,5.0,52,0.00,,,0.00,Rainwise IP-100,2013-05-18 22:41:00,
2013-05-18 18:46:00,64.0,47.0,30.14,South,180,1.0,3.0,54,0.00,,,0.00,Rainwise IP-100,2013-05-18 22:46:00,
2013-05-18 18:51:00,64.0,48.0,30.14,WSW,247,1.0,6.0,56,0.00,,,0.00,Rainwise IP-100,2013-05-18 22:51:00,
2013-05-18 18:56:00,64.0,48.0,30.14,WSW,247,1.0,4.0,57,0.00,,,0.00,Rainwise IP-100,2013-05-18 22:56:00,
2013-05-18 19:01:00,64.0,48.0,30.15,West,270,1.0,6.0,56,0.00,,,0.00,Rainwise IP-100,2013-05-18 23:01:00,
2013-05-18 19:06:00,63.0,47.5,30.15,SW,225,4.0,4.0,57,0.00,,,0.00,Rainwise IP-100,2013-05-18 23:06:00,
2013-05-18 19:11:00,63.0,47.5,30.15,South,180,1.0,5.0,57,0.00,,,0.00,Rainwise IP-100,2013-05-18 23:11:00,
2013-05-18 19:16:00,62.0,47.0,30.15,SW,225,5.0,6.0,58,0.00,,,0.00,Rainwise IP-100,2013-05-18 23:16:00,
2013-05-18 19:22:00,62.0,47.0,30.16,WSW,247,0.0,6.0,58,0.00,,,0.00,Rainwise IP-100,2013-05-18 23:22:00,
2013-05-18 19:27:00,62.0,47.0,30.16,SW,225,5.0,5.0,57,0.00,,,0.00,Rainwise IP-100,2013-05-18 23:27:00,
2013-05-18 19:32:00,61.0,46.0,30.16,South,180,1.0,10.0,57,0.00,,,0.00,Rainwise IP-100,2013-05-18 23:32:00,
2013-05-18 19:37:00,61.0,46.0,30.16,SW,225,3.0,4.0,57,0.00,,,0.00,Rainwise IP-100,2013-05-18 23:37:00,
2013-05-18 19:42:00,61.0,46.0,30.17,SSW,202,2.0,7.0,57,0.00,,,0.00,Rainwise IP-100,2013-05-18 23:42:00,
2013-05-18 19:47:00,60.0,45.0,30.17,NE,45,2.0,6.0,57,0.00,,,0.00,Rainwise IP-100,2013-05-18 23:47:00,
2013-05-18 19:52:00,60.0,46.0,30.17,SW,225,0.0,4.0,60,0.00,,,0.00,Rainwise IP-100,2013-05-18 23:52:00,
2013-05-18 19:57:00,60.0,46.0,30.17,SW,225,1.0,1.0,60,0.00,,,0.00,Rainwise IP-100,2013-05-18 23:57:00,
2013-05-18 20:03:00,59.0,46.0,30.17,SE,135,0.0,6.0,61,0.00,,,0.00,Rainwise IP-100,2013-05-19 00:03:00,
2013-05-18 20:08:00,59.0,46.0,30.17,SE,135,2.0,6.0,61,0.00,,,0.00,Rainwise IP-100,2013-05-19 00:08:00,
2013-05-18 20:13:00,59.0,46.0,30.18,North,360,2.0,4.0,61,0.00,,,0.00,Rainwise IP-100,2013-05-19 00:13:00,
2013-05-18 20:18:00,59.0,47.0,30.18,WNW,292,1.0,3.0,64,0.00,,,0.00,Rainwise IP-100,2013-05-19 00:18:00,
2013-05-18 20:23:00,59.0,47.5,30.18,SSE,157,0.0,4.0,65,0.00,,,0.00,Rainwise IP-100,2013-05-19 00:23:00,
2013-05-18 20:28:00,58.0,47.0,30.18,SW,225,0.0,2.0,66,0.00,,,0.00,Rainwise IP-100,2013-05-19 00:28:00,
2013-05-18 20:33:00,58.0,47.0,30.19,SE,135,1.0,5.0,65,0.00,,,0.00,Rainwise IP-100,2013-05-19 00:33:00,
2013-05-18 20:38:00,58.0,47.0,30.19,SW,225,0.0,3.0,66,0.00,,,0.00,Rainwise IP-100,2013-05-19 00:38:00,
2013-05-18 20:44:00,57.0,46.0,30.19,SW,225,0.0,3.0,66,0.00,,,0.00,Rainwise IP-100,2013-05-19 00:44:00,
2013-05-18 20:49:00,57.0,47.0,30.19,SW,225,0.0,5.0,68,0.00,,,0.00,Rainwise IP-100,2013-05-19 00:49:00,
2013-05-18 20:54:00,57.0,47.0,30.20,SW,225,1.0,5.0,68,0.00,,,0.00,Rainwise IP-100,2013-05-19 00:54:00,
2013-05-18 20:59:00,57.0,47.0,30.20,SE,135,0.0,5.0,69,0.00,,,0.00,Rainwise IP-100,2013-05-19 00:59:00,
2013-05-18 21:04:00,57.0,47.0,30.20,SW,225,0.0,2.0,69,0.00,,,0.00,Rainwise IP-100,2013-05-19 01:04:00,
2013-05-18 21:09:00,57.0,47.5,30.20,SW,225,0.0,2.0,70,0.00,,,0.00,Rainwise IP-100,2013-05-19 01:09:00,
2013-05-18 21:14:00,57.0,47.5,30.20,SW,225,0.0,4.0,71,0.00,,,0.00,Rainwise IP-100,2013-05-19 01:14:00,
2013-05-18 21:19:00,57.0,47.5,30.20,WNW,292,0.0,4.0,71,0.00,,,0.00,Rainwise IP-100,2013-05-19 01:19:00,
2013-05-18 21:25:00,56.0,47.0,30.20,SW,225,0.0,4.0,71,0.00,,,0.00,Rainwise IP-100,2013-05-19 01:25:00,
2013-05-18 21:30:00,56.0,47.0,30.20,SW,225,0.0,2.0,72,0.00,,,0.00,Rainwise IP-100,2013-05-19 01:30:00,
2013-05-18 21:35:00,56.0,47.0,30.21,SW,225,0.0,2.0,72,0.00,,,0.00,Rainwise IP-100,2013-05-19 01:35:00,
2013-05-18 21:40:00,56.0,47.5,30.21,SW,225,0.0,1.0,73,0.00,,,0.00,Rainwise IP-100,2013-05-19 01:40:00,
2013-05-18 21:45:00,55.0,47.5,30.21,SW,225,0.0,2.0,75,0.00,,,0.00,Rainwise IP-100,2013-05-19 01:45:00,
2013-05-18 21:50:00,55.0,47.5,30.22,SW,225,0.0,1.0,76,0.00,,,0.00,Rainwise IP-100,2013-05-19 01:50:00,
2013-05-18 21:55:00,54.0,47.0,30.22,SW,225,0.0,2.0,77,0.00,,,0.00,Rainwise IP-100,2013-05-19 01:55:00,
2013-05-18 22:00:00,54.0,47.0,30.22,SW,225,0.0,1.0,77,0.00,,,0.00,Rainwise IP-100,2013-05-19 02:00:00,
2013-05-18 22:06:00,54.0,47.5,30.22,SW,225,1.0,0.0,79,0.00,,,0.00,Rainwise IP-100,2013-05-19 02:06:00,
2013-05-18 22:11:00,54.0,48.0,30.22,SW,225,0.0,3.0,80,0.00,,,0.00,Rainwise IP-100,2013-05-19 02:11:00,
2013-05-18 22:16:00,53.0,47.0,30.22,SW,225,0.0,0.0,81,0.00,,,0.00,Rainwise IP-100,2013-05-19 02:16:00,
2013-05-18 22:21:00,53.0,47.5,30.23,SW,225,0.0,0.0,83,0.00,,,0.00,Rainwise IP-100,2013-05-19 02:21:00,
2013-05-18 22:26:00,53.0,47.5,30.23,West,270,0.0,0.0,83,0.00,,,0.00,Rainwise IP-100,2013-05-19 02:26:00,
2013-05-18 22:31:00,53.0,47.5,30.23,West,270,0.0,1.0,83,0.00,,,0.00,Rainwise IP-100,2013-05-19 02:31:00,
2013-05-18 22:36:00,53.0,47.5,30.23,West,270,0.0,0.0,83,0.00,,,0.00,Rainwise IP-100,2013-05-19 02:36:00,
2013-05-18 22:42:00,52.0,47.5,30.23,West,270,0.0,0.0,84,0.00,,,0.00,Rainwise IP-100,2013-05-19 02:42:00,
2013-05-18 22:47:00,52.0,47.5,30.23,West,270,1.0,2.0,85,0.00,,,0.00,Rainwise IP-100,2013-05-19 02:47:00,
2013-05-18 22:52:00,52.0,48.0,30.23,WSW,247,0.0,3.0,86,0.00,,,0.00,Rainwise IP-100,2013-05-19 02:52:00,
2013-05-18 22:57:00,52.0,48.0,30.23,WSW,247,0.0,1.0,86,0.00,,,0.00,Rainwise IP-100,2013-05-19 02:57:00,
2013-05-18 23:02:00,52.0,48.0,30.23,WSW,247,0.0,0.0,87,0.00,,,0.00,Rainwise IP-100,2013-05-19 03:02:00,
2013-05-18 23:07:00,52.0,48.0,30.23,WSW,247,0.0,0.0,88,0.00,,,0.00,Rainwise IP-100,2013-05-19 03:07:00,
2013-05-18 23:12:00,51.0,48.0,30.24,WSW,247,0.0,0.0,89,0.00,,,0.00,Rainwise IP-100,2013-05-19 03:12:00,
2013-05-18 23:17:00,51.0,48.0,30.24,WSW,247,0.0,0.0,90,0.00,,,0.00,Rainwise IP-100,2013-05-19 03:17:00,
2013-05-18 23:23:00,51.0,49.0,30.23,WSW,247,0.0,0.0,91,0.00,,,0.00,Rainwise IP-100,2013-05-19 03:23:00,
2013-05-18 23:28:00,50.0,47.5,30.23,WSW,247,0.0,0.0,91,0.00,,,0.00,Rainwise IP-100,2013-05-19 03:28:00,
2013-05-18 23:33:00,50.0,47.5,30.24,WSW,247,0.0,0.0,91,0.00,,,0.00,Rainwise IP-100,2013-05-19 03:33:00,
2013-05-18 23:38:00,50.0,47.5,30.24,WSW,247,0.0,0.0,92,0.00,,,0.00,Rainwise IP-100,2013-05-19 03:38:00,
2013-05-18 23:43:00,50.0,47.5,30.24,WSW,247,0.0,0.0,93,0.00,,,0.00,Rainwise IP-100,2013-05-19 03:43:00,
2013-05-18 23:48:00,49.0,47.5,30.24,WSW,247,0.0,0.0,94,0.00,,,0.00,Rainwise IP-100,2013-05-19 03:48:00,
2013-05-18 23:53:00,49.0,47.5,30.25,WSW,247,0.0,0.0,95,0.00,,,0.00,Rainwise IP-100,2013-05-19 03:53:00,
2013-05-18 23:58:00,49.0,48.0,30.25,WSW,247,0.0,0.0,97,0.00,,,0.00,Rainwise IP-100,2013-05-19 03:58:00,